contact:dominique.lefevre@mio.osupytheas.fr, maurice.libes@osupytheas.fr, didier.mallarino@osupytheas.fr
Project:EMSO http://www.emso-fr.org/EMSO-France
Depth: 2436.0 m
Title:EMSO Ligure Ouest : Data MII capteur MICROCAT
DateTime_Computer,Latitude,Longitude,Temperature,Conductivity,Pressure,DateTime_Instrument
DateTime_Computer,Latitude,Longitude,degC,S m-1,dbar,DateTime_Instrument
2022-06-02T00:02:40Z,42.805,6.029,13.3015,4.60057,2470.693,2022-6-02T02:04:22Z
2022-06-02T00:05:43Z,42.805,6.029,13.3019,4.60057,2470.717,2022-6-02T02:07:26Z
2022-06-02T00:08:46Z,42.805,6.029,13.3044,4.60054,2470.693,2022-6-02T02:10:29Z
2022-06-02T00:11:49Z,42.805,6.029,13.3000,4.60033,2470.754,2022-6-02T02:13:32Z
2022-06-02T00:14:53Z,42.805,6.029,13.3004,4.60039,2470.707,2022-6-02T02:16:35Z
2022-06-02T00:17:56Z,42.805,6.029,13.3024,4.60037,2470.693,2022-6-02T02:19:38Z
2022-06-02T00:20:59Z,42.805,6.029,13.3009,4.60045,2470.707,2022-6-02T02:22:41Z
2022-06-02T00:24:02Z,42.805,6.029,13.3006,4.60035,2470.717,2022-6-02T02:25:44Z
2022-06-02T00:27:05Z,42.805,6.029,13.3015,4.60057,2470.693,2022-6-02T02:28:47Z
2022-06-02T00:30:08Z,42.805,6.029,13.3009,4.60037,2470.73,2022-6-02T02:31:50Z
2022-06-02T00:33:11Z,42.805,6.029,13.3004,4.60036,2470.717,2022-6-02T02:34:54Z
2022-06-02T00:36:14Z,42.805,6.029,13.3003,4.60035,2470.684,2022-6-02T02:37:57Z
2022-06-02T00:39:18Z,42.805,6.029,13.3004,4.60033,2470.73,2022-6-02T02:41:00Z
2022-06-02T00:42:21Z,42.805,6.029,13.3002,4.60032,2470.707,2022-6-02T02:44:03Z
2022-06-02T00:45:24Z,42.805,6.029,13.3006,4.60038,2470.693,2022-6-02T02:47:06Z
2022-06-02T00:48:27Z,42.805,6.029,13.3021,4.60068,2470.693,2022-6-02T02:50:09Z
2022-06-02T00:51:30Z,42.805,6.029,13.3030,4.60081,2470.693,2022-6-02T02:53:12Z
2022-06-02T00:54:33Z,42.805,6.029,13.3015,4.60106,2470.684,2022-6-02T02:56:15Z
2022-06-02T00:57:36Z,42.805,6.029,13.3023,4.60094,2470.67,2022-6-02T02:59:19Z
2022-06-02T01:00:39Z,42.805,6.029,13.3034,4.60080,2470.674,2022-6-02T03:02:22Z
2022-06-02T01:03:42Z,42.805,6.029,13.3027,4.60087,2470.693,2022-6-02T03:05:25Z
2022-06-02T01:06:46Z,42.805,6.029,13.3040,4.60064,2470.693,2022-6-02T03:08:28Z
2022-06-02T01:09:49Z,42.805,6.029,13.3041,4.60072,2470.67,2022-6-02T03:11:31Z
2022-06-02T01:12:52Z,42.805,6.029,13.3031,4.60072,2470.67,2022-6-02T03:14:34Z
2022-06-02T01:15:55Z,42.805,6.029,13.3022,4.60058,2470.67,2022-6-02T03:17:37Z
2022-06-02T01:18:58Z,42.805,6.029,13.3014,4.60047,2470.661,2022-6-02T03:20:40Z
2022-06-02T01:22:01Z,42.805,6.029,13.3013,4.60046,2470.684,2022-6-02T03:23:43Z
2022-06-02T01:25:04Z,42.805,6.029,13.3027,4.60061,2470.684,2022-6-02T03:26:47Z
2022-06-02T01:28:07Z,42.805,6.029,13.3030,4.60061,2470.67,2022-6-02T03:29:50Z
2022-06-02T01:31:11Z,42.805,6.029,13.3037,4.60075,2470.661,2022-6-02T03:32:53Z
2022-06-02T01:34:14Z,42.805,6.029,13.3018,4.60058,2470.646,2022-6-02T03:35:56Z
2022-06-02T01:37:17Z,42.805,6.029,13.3021,4.60053,2470.693,2022-6-02T03:38:59Z
2022-06-02T01:40:20Z,42.805,6.029,13.3032,4.60060,2470.646,2022-6-02T03:42:02Z
2022-06-02T01:43:23Z,42.805,6.029,13.3024,4.60057,2470.637,2022-6-02T03:45:05Z
2022-06-02T01:46:26Z,42.805,6.029,13.3005,4.60046,2470.646,2022-6-02T03:48:08Z
2022-06-02T01:49:29Z,42.805,6.029,13.3014,4.60052,2470.624,2022-6-02T03:51:12Z
2022-06-02T01:52:32Z,42.805,6.029,13.3014,4.60053,2470.624,2022-6-02T03:54:15Z
2022-06-02T01:55:35Z,42.805,6.029,13.3039,4.60064,2470.661,2022-6-02T03:57:18Z
2022-06-02T01:58:39Z,42.805,6.029,13.3022,4.60103,2470.646,2022-6-02T04:00:21Z
2022-06-02T02:01:42Z,42.805,6.029,13.3029,4.60072,2470.646,2022-6-02T04:03:24Z
2022-06-02T02:04:45Z,42.805,6.029,13.3030,4.60062,2470.661,2022-6-02T04:06:27Z
2022-06-02T02:07:48Z,42.805,6.029,13.3034,4.60074,2470.637,2022-6-02T04:09:30Z
2022-06-02T02:10:51Z,42.805,6.029,13.3029,4.60064,2470.646,2022-6-02T04:12:33Z
2022-06-02T02:13:54Z,42.805,6.029,13.3027,4.60043,2470.646,2022-6-02T04:15:36Z
2022-06-02T02:16:57Z,42.805,6.029,13.3035,4.60054,2470.646,2022-6-02T04:18:40Z
2022-06-02T02:20:00Z,42.805,6.029,13.3019,4.60044,2470.624,2022-6-02T04:21:43Z
2022-06-02T02:23:04Z,42.805,6.029,13.3030,4.60051,2470.624,2022-6-02T04:24:46Z
2022-06-02T02:26:07Z,42.805,6.029,13.3024,4.60058,2470.614,2022-6-02T04:27:49Z
2022-06-02T02:29:10Z,42.805,6.029,13.3043,4.60066,2470.624,2022-6-02T04:30:52Z
2022-06-02T02:32:13Z,42.805,6.029,13.3031,4.60048,2470.6,2022-6-02T04:33:55Z
2022-06-02T02:35:16Z,42.805,6.029,13.3026,4.60055,2470.624,2022-6-02T04:36:58Z
2022-06-02T02:38:19Z,42.805,6.029,13.3027,4.60061,2470.624,2022-6-02T04:40:01Z
2022-06-02T02:41:22Z,42.805,6.029,13.3023,4.60090,2470.661,2022-6-02T04:43:05Z
2022-06-02T02:44:25Z,42.805,6.029,13.3022,4.60115,2470.624,2022-6-02T04:46:08Z
2022-06-02T02:47:28Z,42.805,6.029,13.3026,4.60057,2470.646,2022-6-02T04:49:11Z
2022-06-02T02:50:32Z,42.805,6.029,13.3017,4.60087,2470.624,2022-6-02T04:52:14Z
2022-06-02T02:53:35Z,42.805,6.029,13.3025,4.60102,2470.614,2022-6-02T04:55:17Z
2022-06-02T02:56:38Z,42.805,6.029,13.3020,4.60104,2470.6,2022-6-02T04:58:20Z
2022-06-02T02:59:41Z,42.805,6.029,13.3039,4.60080,2470.6,2022-6-02T05:01:23Z
2022-06-02T03:02:44Z,42.805,6.029,13.3024,4.60104,2470.6,2022-6-02T05:04:26Z
2022-06-02T03:05:47Z,42.805,6.029,13.3031,4.60089,2470.614,2022-6-02T05:07:29Z
2022-06-02T03:08:50Z,42.805,6.029,13.3025,4.60133,2470.637,2022-6-02T05:10:33Z
2022-06-02T03:11:53Z,42.805,6.029,13.3021,4.60101,2470.591,2022-6-02T05:13:36Z
2022-06-02T03:14:57Z,42.805,6.029,13.3014,4.60072,2470.6,2022-6-02T05:16:39Z
2022-06-02T03:18:00Z,42.805,6.029,13.3026,4.60092,2470.624,2022-6-02T05:19:42Z
2022-06-02T03:21:03Z,42.805,6.029,13.3029,4.60098,2470.637,2022-6-02T05:22:45Z
2022-06-02T03:24:06Z,42.805,6.029,13.3026,4.60112,2470.6,2022-6-02T05:25:48Z
2022-06-02T03:27:09Z,42.805,6.029,13.3026,4.60110,2470.577,2022-6-02T05:28:51Z
2022-06-02T03:30:12Z,42.805,6.029,13.3027,4.60115,2470.624,2022-6-02T05:31:54Z
2022-06-02T03:33:15Z,42.805,6.029,13.3026,4.60111,2470.624,2022-6-02T05:34:58Z
2022-06-02T03:36:18Z,42.805,6.029,13.3026,4.60107,2470.637,2022-6-02T05:38:01Z
2022-06-02T03:39:21Z,42.805,6.029,13.3024,4.60103,2470.624,2022-6-02T05:41:04Z
2022-06-02T03:42:25Z,42.805,6.029,13.3031,4.60106,2470.6,2022-6-02T05:44:07Z
2022-06-02T03:45:28Z,42.805,6.029,13.3030,4.60116,2470.577,2022-6-02T05:47:10Z
2022-06-02T03:48:31Z,42.805,6.029,13.3022,4.60113,2470.614,2022-6-02T05:50:13Z
2022-06-02T03:51:34Z,42.805,6.029,13.3030,4.60103,2470.614,2022-6-02T05:53:16Z
2022-06-02T03:54:37Z,42.805,6.029,13.3036,4.60128,2470.6,2022-6-02T05:56:19Z
2022-06-02T03:57:40Z,42.805,6.029,13.3030,4.60123,2470.637,2022-6-02T05:59:22Z
2022-06-02T04:00:43Z,42.805,6.029,13.3027,4.60111,2470.646,2022-6-02T06:02:26Z
2022-06-02T04:03:46Z,42.805,6.029,13.3029,4.60115,2470.577,2022-6-02T06:05:29Z
2022-06-02T04:06:49Z,42.805,6.029,13.3039,4.60116,2470.624,2022-6-02T06:08:32Z
2022-06-02T04:09:53Z,42.805,6.029,13.3040,4.60101,2470.646,2022-6-02T06:11:35Z
2022-06-02T04:12:56Z,42.805,6.029,13.3023,4.60147,2470.6,2022-6-02T06:14:38Z
2022-06-02T04:15:59Z,42.805,6.029,13.3028,4.60138,2470.577,2022-6-02T06:17:41Z
2022-06-02T04:19:02Z,42.805,6.029,13.3031,4.60123,2470.637,2022-6-02T06:20:44Z
2022-06-02T04:22:05Z,42.805,6.029,13.3019,4.60119,2470.577,2022-6-02T06:23:47Z
2022-06-02T04:25:08Z,42.805,6.029,13.3016,4.60087,2470.614,2022-6-02T06:26:50Z
2022-06-02T04:28:11Z,42.805,6.029,13.3019,4.60097,2470.6,2022-6-02T06:29:54Z
2022-06-02T04:31:14Z,42.805,6.029,13.3015,4.60091,2470.6,2022-6-02T06:32:57Z
2022-06-02T04:34:18Z,42.805,6.029,13.3014,4.60095,2470.646,2022-6-02T06:36:00Z
2022-06-02T04:37:21Z,42.805,6.029,13.3026,4.60114,2470.624,2022-6-02T06:39:03Z
2022-06-02T04:40:24Z,42.805,6.029,13.3023,4.60116,2470.614,2022-6-02T06:42:06Z
2022-06-02T04:43:27Z,42.805,6.029,13.3034,4.60132,2470.624,2022-6-02T06:45:09Z
2022-06-02T04:46:30Z,42.805,6.029,13.3024,4.60081,2470.624,2022-6-02T06:48:12Z
2022-06-02T04:49:33Z,42.805,6.029,13.3021,4.60130,2470.637,2022-6-02T06:51:15Z
2022-06-02T04:52:36Z,42.805,6.029,13.3034,4.60102,2470.624,2022-6-02T06:54:19Z
2022-06-02T04:55:39Z,42.805,6.029,13.3022,4.60094,2470.646,2022-6-02T06:57:22Z
2022-06-02T04:58:42Z,42.805,6.029,13.3023,4.60069,2470.646,2022-6-02T07:00:25Z
2022-06-02T05:01:46Z,42.805,6.029,13.3028,4.60095,2470.624,2022-6-02T07:03:28Z
2022-06-02T05:04:49Z,42.805,6.029,13.3020,4.60069,2470.646,2022-6-02T07:06:31Z
2022-06-02T05:07:52Z,42.805,6.029,13.3012,4.60089,2470.624,2022-6-02T07:09:34Z
2022-06-02T05:10:55Z,42.805,6.029,13.3023,4.60112,2470.646,2022-6-02T07:12:37Z
2022-06-02T05:13:58Z,42.805,6.029,13.3026,4.60102,2470.624,2022-6-02T07:15:40Z
2022-06-02T05:17:01Z,42.805,6.029,13.3042,4.60094,2470.624,2022-6-02T07:18:43Z
2022-06-02T05:20:04Z,42.805,6.029,13.3033,4.60095,2470.637,2022-6-02T07:21:47Z
2022-06-02T05:23:07Z,42.805,6.029,13.3051,4.60103,2470.646,2022-6-02T07:24:50Z
2022-06-02T05:26:10Z,42.805,6.029,13.3026,4.60094,2470.624,2022-6-02T07:27:53Z
2022-06-02T05:29:14Z,42.805,6.029,13.3040,4.60093,2470.637,2022-6-02T07:30:56Z
2022-06-02T05:32:17Z,42.805,6.029,13.3030,4.60097,2470.637,2022-6-02T07:33:59Z
2022-06-02T05:35:20Z,42.805,6.029,13.3029,4.60105,2470.637,2022-6-02T07:37:02Z
2022-06-02T05:38:23Z,42.805,6.029,13.3047,4.60097,2470.661,2022-6-02T07:40:05Z
2022-06-02T05:41:26Z,42.805,6.029,13.3024,4.60097,2470.637,2022-6-02T07:43:08Z
2022-06-02T05:44:29Z,42.805,6.029,13.3019,4.60096,2470.661,2022-6-02T07:46:11Z
2022-06-02T05:47:32Z,42.805,6.029,13.3016,4.60063,2470.6,2022-6-02T07:49:15Z
2022-06-02T05:50:35Z,42.805,6.029,13.3020,4.60065,2470.646,2022-6-02T07:52:18Z
2022-06-02T05:53:39Z,42.805,6.029,13.3010,4.60058,2470.624,2022-6-02T07:55:21Z
2022-06-02T05:56:42Z,42.805,6.029,13.3025,4.60068,2470.646,2022-6-02T07:58:24Z
2022-06-02T05:59:45Z,42.805,6.029,13.3016,4.60063,2470.661,2022-6-02T08:01:27Z
2022-06-02T06:02:48Z,42.805,6.029,13.3012,4.60066,2470.684,2022-6-02T08:04:30Z
2022-06-02T06:05:51Z,42.805,6.029,13.3013,4.60064,2470.67,2022-6-02T08:07:33Z
2022-06-02T06:08:54Z,42.805,6.029,13.3012,4.60063,2470.67,2022-6-02T08:10:36Z
2022-06-02T06:11:57Z,42.805,6.029,13.3014,4.60119,2470.693,2022-6-02T08:13:40Z
2022-06-02T06:15:00Z,42.805,6.029,13.3011,4.60081,2470.67,2022-6-02T08:16:43Z
2022-06-02T06:18:03Z,42.805,6.029,13.3011,4.60074,2470.646,2022-6-02T08:19:46Z
2022-06-02T06:21:07Z,42.805,6.029,13.3024,4.60066,2470.693,2022-6-02T08:22:49Z
2022-06-02T06:24:10Z,42.805,6.029,13.3020,4.60087,2470.67,2022-6-02T08:25:52Z
2022-06-02T06:27:13Z,42.805,6.029,13.3014,4.60069,2470.684,2022-6-02T08:28:55Z
2022-06-02T06:30:16Z,42.805,6.029,13.3019,4.60095,2470.67,2022-6-02T08:31:58Z
2022-06-02T06:33:19Z,42.805,6.029,13.3007,4.60062,2470.67,2022-6-02T08:35:01Z
2022-06-02T06:36:22Z,42.805,6.029,13.3019,4.60057,2470.67,2022-6-02T08:38:04Z
2022-06-02T06:39:25Z,42.805,6.029,13.3010,4.60057,2470.67,2022-6-02T08:41:08Z
2022-06-02T06:42:28Z,42.805,6.029,13.3009,4.60066,2470.661,2022-6-02T08:44:11Z
2022-06-02T06:45:32Z,42.805,6.029,13.3011,4.60086,2470.646,2022-6-02T08:47:14Z
2022-06-02T06:48:35Z,42.805,6.029,13.3008,4.60069,2470.67,2022-6-02T08:50:17Z
2022-06-02T06:51:38Z,42.805,6.029,13.3011,4.60082,2470.707,2022-6-02T08:53:20Z
2022-06-02T06:54:41Z,42.805,6.029,13.3011,4.60069,2470.67,2022-6-02T08:56:23Z
2022-06-02T06:57:44Z,42.805,6.029,13.3008,4.60077,2470.67,2022-6-02T08:59:26Z
2022-06-02T07:00:47Z,42.805,6.029,13.3032,4.60079,2470.693,2022-6-02T09:02:29Z
2022-06-02T07:03:50Z,42.805,6.029,13.3024,4.60087,2470.707,2022-6-02T09:05:33Z
2022-06-02T07:06:53Z,42.805,6.029,13.3011,4.60079,2470.693,2022-6-02T09:08:36Z
2022-06-02T07:09:56Z,42.805,6.029,13.3011,4.60061,2470.679,2022-6-02T09:11:39Z
2022-06-02T07:13:00Z,42.805,6.029,13.3006,4.60057,2470.717,2022-6-02T09:14:42Z
2022-06-02T07:16:03Z,42.805,6.029,13.3009,4.60083,2470.707,2022-6-02T09:17:45Z
2022-06-02T07:19:06Z,42.805,6.029,13.3010,4.60073,2470.707,2022-6-02T09:20:48Z
2022-06-02T07:22:09Z,42.805,6.029,13.3014,4.60078,2470.693,2022-6-02T09:23:51Z
2022-06-02T07:25:12Z,42.805,6.029,13.3013,4.60084,2470.693,2022-6-02T09:26:54Z
2022-06-02T07:28:15Z,42.805,6.029,13.3009,4.60081,2470.67,2022-6-02T09:29:57Z
2022-06-02T07:31:18Z,42.805,6.029,13.3008,4.60077,2470.693,2022-6-02T09:33:01Z
2022-06-02T07:34:21Z,42.805,6.029,13.3019,4.60079,2470.707,2022-6-02T09:36:04Z
2022-06-02T07:37:25Z,42.805,6.029,13.3009,4.60076,2470.73,2022-6-02T09:39:07Z
2022-06-02T07:40:28Z,42.805,6.029,13.3008,4.60068,2470.67,2022-6-02T09:42:10Z
2022-06-02T07:43:31Z,42.805,6.029,13.3007,4.60067,2470.717,2022-6-02T09:45:13Z
2022-06-02T07:46:34Z,42.805,6.029,13.3011,4.60087,2470.707,2022-6-02T09:48:16Z
2022-06-02T07:49:37Z,42.805,6.029,13.3014,4.60076,2470.717,2022-6-02T09:51:19Z
2022-06-02T07:52:40Z,42.805,6.029,13.3009,4.60072,2470.717,2022-6-02T09:54:22Z
2022-06-02T07:55:43Z,42.805,6.029,13.3019,4.60084,2470.717,2022-6-02T09:57:26Z
2022-06-02T07:58:46Z,42.805,6.029,13.3010,4.60079,2470.67,2022-6-02T10:00:29Z
2022-06-02T08:01:49Z,42.805,6.029,13.3019,4.60069,2470.693,2022-6-02T10:03:32Z
2022-06-02T08:04:53Z,42.805,6.029,13.3018,4.60084,2470.717,2022-6-02T10:06:35Z
2022-06-02T08:07:56Z,42.805,6.029,13.3012,4.60077,2470.693,2022-6-02T10:09:38Z
2022-06-02T08:10:59Z,42.805,6.029,13.3019,4.60079,2470.684,2022-6-02T10:12:41Z
2022-06-02T08:14:02Z,42.805,6.029,13.3014,4.60074,2470.717,2022-6-02T10:15:44Z
2022-06-02T08:17:05Z,42.805,6.029,13.3013,4.60107,2470.707,2022-6-02T10:18:47Z
2022-06-02T08:20:08Z,42.805,6.029,13.3008,4.60069,2470.684,2022-6-02T10:21:50Z
2022-06-02T08:23:11Z,42.805,6.029,13.3011,4.60067,2470.67,2022-6-02T10:24:54Z
2022-06-02T08:26:14Z,42.805,6.029,13.3020,4.60089,2470.684,2022-6-02T10:27:57Z
2022-06-02T08:29:18Z,42.805,6.029,13.3013,4.60084,2470.693,2022-6-02T10:31:00Z
2022-06-02T08:32:21Z,42.805,6.029,13.3017,4.60102,2470.67,2022-6-02T10:34:03Z
2022-06-02T08:35:24Z,42.805,6.029,13.3018,4.60084,2470.684,2022-6-02T10:37:06Z
2022-06-02T08:38:27Z,42.805,6.029,13.3019,4.60067,2470.693,2022-6-02T10:40:09Z
2022-06-02T08:41:30Z,42.805,6.029,13.3018,4.60064,2470.73,2022-6-02T10:43:12Z
2022-06-02T08:44:33Z,42.805,6.029,13.3011,4.60068,2470.693,2022-6-02T10:46:15Z
2022-06-02T08:47:36Z,42.805,6.029,13.3006,4.60078,2470.693,2022-6-02T10:49:19Z
2022-06-02T08:50:39Z,42.805,6.029,13.3012,4.60074,2470.707,2022-6-02T10:52:22Z
2022-06-02T08:53:43Z,42.805,6.029,13.3028,4.60090,2470.67,2022-6-02T10:55:25Z
2022-06-02T08:56:46Z,42.805,6.029,13.3016,4.60084,2470.73,2022-6-02T10:58:28Z
2022-06-02T08:59:49Z,42.805,6.029,13.3013,4.60076,2470.656,2022-6-02T11:01:31Z
2022-06-02T09:02:52Z,42.805,6.029,13.3014,4.60075,2470.707,2022-6-02T11:04:34Z
2022-06-02T09:05:55Z,42.805,6.029,13.3019,4.60084,2470.693,2022-6-02T11:07:37Z
2022-06-02T09:08:58Z,42.805,6.029,13.3023,4.60089,2470.693,2022-6-02T11:10:40Z
2022-06-02T09:12:01Z,42.805,6.029,13.3022,4.60088,2470.646,2022-6-02T11:13:44Z
2022-06-02T09:15:04Z,42.805,6.029,13.3023,4.60079,2470.67,2022-6-02T11:16:47Z
2022-06-02T09:18:08Z,42.805,6.029,13.3015,4.60081,2470.684,2022-6-02T11:19:50Z
2022-06-02T09:21:11Z,42.805,6.029,13.3020,4.60078,2470.693,2022-6-02T11:22:53Z
2022-06-02T09:24:14Z,42.805,6.029,13.3011,4.60077,2470.707,2022-6-02T11:25:56Z
2022-06-02T09:27:17Z,42.805,6.029,13.3021,4.60077,2470.717,2022-6-02T11:28:59Z
2022-06-02T09:30:20Z,42.805,6.029,13.3013,4.60087,2470.707,2022-6-02T11:32:02Z
2022-06-02T09:33:23Z,42.805,6.029,13.3020,4.60090,2470.73,2022-6-02T11:35:05Z
2022-06-02T09:36:26Z,42.805,6.029,13.3019,4.60085,2470.693,2022-6-02T11:38:09Z
2022-06-02T09:39:29Z,42.805,6.029,13.3013,4.60079,2470.67,2022-6-02T11:41:12Z
2022-06-02T09:42:32Z,42.805,6.029,13.3014,4.60069,2470.67,2022-6-02T11:44:15Z
2022-06-02T09:45:36Z,42.805,6.029,13.3006,4.60056,2470.707,2022-6-02T11:47:18Z
2022-06-02T09:48:39Z,42.805,6.029,13.3015,4.60066,2470.707,2022-6-02T11:50:21Z
2022-06-02T09:51:42Z,42.805,6.029,13.3016,4.60072,2470.684,2022-6-02T11:53:24Z
2022-06-02T09:54:45Z,42.805,6.029,13.3013,4.60082,2470.67,2022-6-02T11:56:27Z
2022-06-02T09:57:48Z,42.805,6.029,13.3011,4.60092,2470.67,2022-6-02T11:59:30Z
2022-06-02T10:00:51Z,42.805,6.029,13.3009,4.60079,2470.693,2022-6-02T12:02:34Z
2022-06-02T10:03:54Z,42.805,6.029,13.3006,4.60056,2470.693,2022-6-02T12:05:37Z
2022-06-02T10:06:57Z,42.805,6.029,13.3015,4.60075,2470.67,2022-6-02T12:08:40Z
2022-06-02T10:10:01Z,42.805,6.029,13.3019,4.60072,2470.633,2022-6-02T12:11:43Z
2022-06-02T10:13:04Z,42.805,6.029,13.3010,4.60068,2470.684,2022-6-02T12:14:46Z
2022-06-02T10:16:07Z,42.805,6.029,13.3006,4.60069,2470.646,2022-6-02T12:17:49Z
2022-06-02T10:19:10Z,42.805,6.029,13.3010,4.60063,2470.661,2022-6-02T12:20:52Z
2022-06-02T10:22:13Z,42.805,6.029,13.3014,4.60059,2470.693,2022-6-02T12:23:55Z
2022-06-02T10:25:16Z,42.805,6.029,13.3014,4.60062,2470.67,2022-6-02T12:26:59Z
2022-06-02T10:28:19Z,42.805,6.029,13.3013,4.60081,2470.646,2022-6-02T12:30:02Z
2022-06-02T10:31:22Z,42.805,6.029,13.3011,4.60068,2470.646,2022-6-02T12:33:05Z
2022-06-02T10:34:26Z,42.805,6.029,13.3005,4.60072,2470.661,2022-6-02T12:36:08Z
2022-06-02T10:37:29Z,42.805,6.029,13.3009,4.60063,2470.624,2022-6-02T12:39:11Z
2022-06-02T10:40:32Z,42.805,6.029,13.3010,4.60061,2470.624,2022-6-02T12:42:14Z
2022-06-02T10:43:35Z,42.805,6.029,13.3005,4.60055,2470.67,2022-6-02T12:45:17Z
2022-06-02T10:46:38Z,42.805,6.029,13.3011,4.60070,2470.684,2022-6-02T12:48:20Z
2022-06-02T10:49:41Z,42.805,6.029,13.3019,4.60074,2470.6,2022-6-02T12:51:23Z
2022-06-02T10:52:44Z,42.805,6.029,13.3019,4.60074,2470.637,2022-6-02T12:54:27Z
2022-06-02T10:55:47Z,42.805,6.029,13.3016,4.60074,2470.624,2022-6-02T12:57:30Z
2022-06-02T10:58:51Z,42.805,6.029,13.3011,4.60065,2470.624,2022-6-02T13:00:33Z
2022-06-02T11:01:54Z,42.805,6.029,13.3009,4.60069,2470.646,2022-6-02T13:03:36Z
2022-06-02T11:04:57Z,42.805,6.029,13.3006,4.60070,2470.6,2022-6-02T13:06:39Z
2022-06-02T11:08:00Z,42.805,6.029,13.3007,4.60074,2470.661,2022-6-02T13:09:42Z
2022-06-02T11:11:03Z,42.805,6.029,13.3007,4.60069,2470.646,2022-6-02T13:12:45Z
2022-06-02T11:14:06Z,42.805,6.029,13.3015,4.60067,2470.624,2022-6-02T13:15:48Z
2022-06-02T11:17:09Z,42.805,6.029,13.3006,4.60071,2470.624,2022-6-02T13:18:52Z
2022-06-02T11:20:12Z,42.805,6.029,13.3006,4.60063,2470.637,2022-6-02T13:21:55Z
2022-06-02T11:23:15Z,42.805,6.029,13.3011,4.60055,2470.637,2022-6-02T13:24:58Z
2022-06-02T11:26:19Z,42.805,6.029,13.3009,4.60057,2470.637,2022-6-02T13:28:01Z
2022-06-02T11:29:22Z,42.805,6.029,13.3006,4.60061,2470.624,2022-6-02T13:31:04Z
2022-06-02T11:32:25Z,42.805,6.029,13.3006,4.60066,2470.6,2022-6-02T13:34:07Z
2022-06-02T11:35:28Z,42.805,6.029,13.3009,4.60065,2470.577,2022-6-02T13:37:10Z
2022-06-02T11:38:31Z,42.805,6.029,13.3010,4.60060,2470.586,2022-6-02T13:40:13Z
2022-06-02T11:41:34Z,42.805,6.029,13.3009,4.60052,2470.6,2022-6-02T13:43:17Z
2022-06-02T11:44:37Z,42.805,6.029,13.3014,4.60074,2470.577,2022-6-02T13:46:20Z
2022-06-02T11:47:40Z,42.805,6.029,13.3004,4.60062,2470.624,2022-6-02T13:49:23Z
2022-06-02T11:50:44Z,42.805,6.029,13.3002,4.60052,2470.614,2022-6-02T13:52:26Z
2022-06-02T11:53:47Z,42.805,6.029,13.3010,4.60054,2470.6,2022-6-02T13:55:29Z
2022-06-02T11:56:50Z,42.805,6.029,13.3007,4.60064,2470.6,2022-6-02T13:58:32Z
2022-06-02T11:59:53Z,42.805,6.029,13.3009,4.60056,2470.6,2022-6-02T14:01:35Z
2022-06-02T12:02:56Z,42.805,6.029,13.3013,4.60070,2470.586,2022-6-02T14:04:38Z
2022-06-02T12:05:59Z,42.805,6.029,13.3018,4.60072,2470.614,2022-6-02T14:07:42Z
2022-06-02T12:09:02Z,42.805,6.029,13.3009,4.60059,2470.637,2022-6-02T14:10:45Z
2022-06-02T12:12:05Z,42.805,6.029,13.3006,4.60066,2470.614,2022-6-02T14:13:48Z
2022-06-02T12:15:09Z,42.805,6.029,13.3012,4.60053,2470.6,2022-6-02T14:16:51Z
2022-06-02T12:18:12Z,42.805,6.029,13.3008,4.60068,2470.6,2022-6-02T14:19:54Z
2022-06-02T12:21:15Z,42.805,6.029,13.3008,4.60072,2470.577,2022-6-02T14:22:57Z
2022-06-02T12:24:18Z,42.805,6.029,13.3009,4.60059,2470.591,2022-6-02T14:26:00Z
2022-06-02T12:27:21Z,42.805,6.029,13.3015,4.60058,2470.6,2022-6-02T14:29:03Z
2022-06-02T12:30:24Z,42.805,6.029,13.3028,4.60072,2470.577,2022-6-02T14:32:06Z
2022-06-02T12:33:27Z,42.805,6.029,13.3019,4.60068,2470.553,2022-6-02T14:35:10Z
2022-06-02T12:36:30Z,42.805,6.029,13.3006,4.60055,2470.577,2022-6-02T14:38:13Z
2022-06-02T12:39:33Z,42.805,6.029,13.3006,4.60068,2470.553,2022-6-02T14:41:16Z
2022-06-02T12:42:37Z,42.805,6.029,13.3009,4.60074,2470.553,2022-6-02T14:44:19Z
2022-06-02T12:45:40Z,42.805,6.029,13.3005,4.60057,2470.624,2022-6-02T14:47:22Z
2022-06-02T12:48:43Z,42.805,6.029,13.3007,4.60047,2470.6,2022-6-02T14:50:25Z
2022-06-02T12:51:46Z,42.805,6.029,13.3012,4.60074,2470.591,2022-6-02T14:53:28Z
2022-06-02T12:54:49Z,42.805,6.029,13.3009,4.60059,2470.553,2022-6-02T14:56:31Z
2022-06-02T12:57:52Z,42.805,6.029,13.3015,4.60070,2470.591,2022-6-02T14:59:35Z
2022-06-02T13:00:55Z,42.805,6.029,13.3024,4.60049,2470.591,2022-6-02T15:02:38Z
2022-06-02T13:03:58Z,42.805,6.029,13.3017,4.60069,2470.577,2022-6-02T15:05:41Z
2022-06-02T13:07:02Z,42.805,6.029,13.3009,4.60087,2470.553,2022-6-02T15:08:44Z
2022-06-02T13:10:05Z,42.805,6.029,13.3022,4.60067,2470.567,2022-6-02T15:11:47Z
2022-06-02T13:13:08Z,42.805,6.029,13.3036,4.60076,2470.591,2022-6-02T15:14:50Z
2022-06-02T13:16:11Z,42.805,6.029,13.3029,4.60095,2470.567,2022-6-02T15:17:53Z
2022-06-02T13:19:14Z,42.805,6.029,13.3010,4.60084,2470.577,2022-6-02T15:20:56Z
2022-06-02T13:22:17Z,42.805,6.029,13.3018,4.60099,2470.553,2022-6-02T15:24:00Z
2022-06-02T13:25:20Z,42.805,6.029,13.3019,4.60073,2470.577,2022-6-02T15:27:03Z
2022-06-02T13:28:23Z,42.805,6.029,13.3023,4.60078,2470.577,2022-6-02T15:30:06Z
2022-06-02T13:31:27Z,42.805,6.029,13.3008,4.60062,2470.553,2022-6-02T15:33:09Z
2022-06-02T13:34:30Z,42.805,6.029,13.3011,4.60092,2470.591,2022-6-02T15:36:12Z
2022-06-02T13:37:33Z,42.805,6.029,13.3004,4.60064,2470.553,2022-6-02T15:39:15Z
2022-06-02T13:40:36Z,42.805,6.029,13.3009,4.60062,2470.577,2022-6-02T15:42:18Z
2022-06-02T13:43:39Z,42.805,6.029,13.3014,4.60062,2470.544,2022-6-02T15:45:21Z
2022-06-02T13:46:42Z,42.805,6.029,13.3011,4.60059,2470.567,2022-6-02T15:48:25Z
2022-06-02T13:49:45Z,42.805,6.029,13.3005,4.60051,2470.553,2022-6-02T15:51:28Z
2022-06-02T13:52:48Z,42.805,6.029,13.3008,4.60057,2470.516,2022-6-02T15:54:31Z
2022-06-02T13:55:52Z,42.805,6.029,13.3009,4.60062,2470.553,2022-6-02T15:57:34Z
2022-06-02T13:58:55Z,42.805,6.029,13.3009,4.60064,2470.567,2022-6-02T16:00:37Z
2022-06-02T14:01:58Z,42.805,6.029,13.3010,4.60069,2470.544,2022-6-02T16:03:40Z
2022-06-02T14:05:01Z,42.805,6.029,13.3015,4.60074,2470.577,2022-6-02T16:06:43Z
2022-06-02T14:08:04Z,42.805,6.029,13.3014,4.60052,2470.53,2022-6-02T16:09:46Z
2022-06-02T14:11:07Z,42.805,6.029,13.3019,4.60085,2470.553,2022-6-02T16:12:49Z
2022-06-02T14:14:10Z,42.805,6.029,13.3009,4.60050,2470.577,2022-6-02T16:15:53Z
2022-06-02T14:17:13Z,42.805,6.029,13.3013,4.60062,2470.553,2022-6-02T16:18:56Z
2022-06-02T14:20:16Z,42.805,6.029,13.3024,4.60072,2470.53,2022-6-02T16:21:59Z
2022-06-02T14:23:20Z,42.805,6.029,13.3015,4.60102,2470.544,2022-6-02T16:25:02Z
2022-06-02T14:26:23Z,42.805,6.029,13.3004,4.60082,2470.544,2022-6-02T16:28:05Z
2022-06-02T14:29:26Z,42.805,6.029,13.3017,4.60081,2470.553,2022-6-02T16:31:08Z
2022-06-02T14:32:29Z,42.805,6.029,13.3018,4.60077,2470.553,2022-6-02T16:34:11Z
2022-06-02T14:35:32Z,42.805,6.029,13.3024,4.60110,2470.544,2022-6-02T16:37:14Z
2022-06-02T14:38:35Z,42.805,6.029,13.3021,4.60107,2470.553,2022-6-02T16:40:18Z
2022-06-02T14:41:38Z,42.805,6.029,13.3014,4.60105,2470.544,2022-6-02T16:43:21Z
2022-06-02T14:44:41Z,42.805,6.029,13.3014,4.60084,2470.553,2022-6-02T16:46:24Z
2022-06-02T14:47:45Z,42.805,6.029,13.3030,4.60094,2470.567,2022-6-02T16:49:27Z
2022-06-02T14:50:48Z,42.805,6.029,13.3014,4.60088,2470.567,2022-6-02T16:52:30Z
2022-06-02T14:53:51Z,42.805,6.029,13.3009,4.60069,2470.53,2022-6-02T16:55:33Z
2022-06-02T14:56:54Z,42.805,6.029,13.3013,4.60084,2470.553,2022-6-02T16:58:36Z
2022-06-02T14:59:57Z,42.805,6.029,13.3016,4.60069,2470.567,2022-6-02T17:01:39Z
2022-06-02T15:03:00Z,42.805,6.029,13.3011,4.60084,2470.567,2022-6-02T17:04:43Z
2022-06-02T15:06:03Z,42.805,6.029,13.3014,4.60081,2470.567,2022-6-02T17:07:46Z
2022-06-02T15:09:06Z,42.805,6.029,13.3008,4.60075,2470.553,2022-6-02T17:10:49Z
2022-06-02T15:12:10Z,42.805,6.029,13.3012,4.60083,2470.567,2022-6-02T17:13:52Z
2022-06-02T15:15:13Z,42.805,6.029,13.3014,4.60073,2470.577,2022-6-02T17:16:55Z